Lake Livingston Weather Center

Moon Phase Calendar



Lake Livingston Water Level
Online Cameras

 


      

Current Conditions in Onalaska
4/15/2024 7:11:32 AM

69°F
Feels Like 70
Clouds
Humidity
92%
Pressure
29.94"
Wind
8.7 mph (SSE)
Dew Point
67°F
UV Index
0/10 (Low)
Visibility
6 mi

Hourly Forecast

Date & Time Mon, Apr 15
7:00 AM
Mon, Apr 15
8:00 AM
Mon, Apr 15
9:00 AM
Mon, Apr 15
10:00 AM
Mon, Apr 15
11:00 AM
Mon, Apr 15
12:00 PM
Mon, Apr 15
1:00 PM
Mon, Apr 15
2:00 PM
Mon, Apr 15
3:00 PM
Mon, Apr 15
4:00 PM
Mon, Apr 15
5:00 PM
Mon, Apr 15
6:00 PM
Mon, Apr 15
7:00 PM
Mon, Apr 15
8:00 PM
Mon, Apr 15
9:00 PM
Mon, Apr 15
10:00 PM
Mon, Apr 15
11:00 PM
Tue, Apr 16
12:00 AM
Tue, Apr 16
1:00 AM
Tue, Apr 16
2:00 AM
Tue, Apr 16
3:00 AM
Tue, Apr 16
4:00 AM
Tue, Apr 16
5:00 AM
Tue, Apr 16
6:00 AM
Tue, Apr 16
7:00 AM
Tue, Apr 16
8:00 AM
Tue, Apr 16
9:00 AM
Tue, Apr 16
10:00 AM
Tue, Apr 16
11:00 AM
Tue, Apr 16
12:00 PM
Tue, Apr 16
1:00 PM
Tue, Apr 16
2:00 PM
Tue, Apr 16
3:00 PM
Tue, Apr 16
4:00 PM
Tue, Apr 16
5:00 PM
Tue, Apr 16
6:00 PM
Tue, Apr 16
7:00 PM
Tue, Apr 16
8:00 PM
Tue, Apr 16
9:00 PM
Tue, Apr 16
10:00 PM
Tue, Apr 16
11:00 PM
Wed, Apr 17
12:00 AM
Wed, Apr 17
1:00 AM
Wed, Apr 17
2:00 AM
Wed, Apr 17
3:00 AM
Wed, Apr 17
4:00 AM
Wed, Apr 17
5:00 AM
Wed, Apr 17
6:00 AM
Condition
Clouds

Clouds

Clouds

Clouds

Clouds

Clouds

Clouds

Clouds

Clouds

Clouds

Clouds

Clouds

Clouds

Clouds

Clouds

Clouds

Clouds

Clouds

Clouds

Clouds

Clouds

Clouds

Clouds

Clouds

Clouds

Clouds

Clouds

Clouds

Clouds

Clouds

Rain

Rain

Clouds

Clouds

Clouds

Clouds

Clouds

Clouds

Clouds

Clouds

Clouds

Clouds

Clouds

Clouds

Clouds

Clouds

Clouds

Clouds
Temperature 69°F69°F70°F72°F75°F77°F78°F80°F80°F80°F79°F77°F73°F71°F70°F69°F68°F68°F69°F69°F69°F70°F70°F70°F70°F71°F72°F73°F77°F78°F78°F82°F84°F84°F83°F79°F76°F73°F72°F72°F72°F72°F73°F73°F73°F73°F73°F73°F
Feels Like 70°F70°F71°F73°F76°F78°F79°F80°F83°F80°F79°F77°F74°F72°F71°F69°F69°F69°F70°F70°F70°F70°F70°F71°F71°F72°F73°F74°F78°F79°F79°F85°F87°F86°F85°F79°F77°F74°F73°F73°F73°F73°F74°F74°F74°F74°F74°F74°F
Cloudiness 100%95%81%75%75%75%80%100%100%100%100%100%100%100%100%100%100%100%100%100%100%100%100%100%100%100%100%100%100%100%100%100%100%100%100%100%100%100%100%100%100%100%100%100%100%100%100%100%
Visibility 6 mi6 mi6 mi6 mi6 mi6 mi6 mi6 mi6 mi6 mi6 mi6 mi6 mi6 mi6 mi6 mi6 mi6 mi6 mi6 mi6 mi6 mi6 mi6 mi6 mi6 mi6 mi6 mi6 mi6 mi6 mi6 mi6 mi6 mi6 mi6 mi6 mi6 mi6 mi6 mi6 mi6 mi6 mi6 mi6 mi6 mi6 mi6 mi
Precipitation 0%0%0%0%0%0%0%0%0%0%0%0%0%0%0%0%0%0%0%0%0%0%0%0%0%0%0%0%0%0%20%41%3%0%0%0%0%0%0%0%0%0%0%0%0%0%0%0%
Humidity 92%93%89%83%76%70%68%64%63%66%68%72%78%82%85%89%92%92%91%89%90%88%87%87%89%91%89%87%79%77%76%65%57%57%61%71%78%84%90%94%94%93%92%90%89%88%88%89%
Dew Point 67°F67°F66°F67°F67°F67°F67°F66°F66°F67°F67°F67°F66°F65°F65°F65°F65°F66°F66°F66°F66°F66°F66°F65°F67°F68°F68°F69°F70°F70°F70°F69°F67°F67°F68°F68°F68°F68°F69°F69°F70°F70°F70°F69°F69°F69°F69°F69°F
Pressure 29.94"29.94"29.94"29.97"29.97"29.94"29.94"29.91"29.88"29.85"29.85"29.85"29.85"29.88"29.88"29.88"29.91"29.91"29.91"29.91"29.88"29.83"29.83"29.83"29.85"29.88"29.88"29.88"29.88"29.88"29.85"29.85"29.83"29.8"29.8"29.8"29.83"29.83"29.85"29.88"29.88"29.88"29.88"29.88"29.88"29.88"29.88"29.88"
Wind Speed 8.7 mph8.9 mph11 mph11.8 mph10.8 mph10.8 mph11.6 mph11.6 mph12.5 mph13.2 mph12.8 mph12.8 mph12.6 mph12 mph11.7 mph11 mph10.7 mph6.7 mph7.8 mph8.2 mph13.2 mph17.8 mph16.7 mph12.4 mph8.5 mph8.6 mph8.1 mph9.5 mph11.1 mph11.8 mph7.7 mph8.7 mph11.5 mph12.8 mph14 mph14.5 mph13.6 mph12.9 mph12.1 mph10.8 mph9.9 mph9 mph8.2 mph7.5 mph6.9 mph6.6 mph7.7 mph7 mph
Wind
Direction
159°
SSE
162°
SSE
170°
S
173°
S
175°
S
174°
S
178°
S
172°
S
160°
SSE
160°
SSE
152°
SSE
158°
SSE
160°
SSE
155°
SSE
154°
SSE
149°
SSE
149°
SSE
138°
SE
138°
SE
141°
SE
141°
SE
148°
SSE
151°
SSE
161°
SSE
182°
S
167°
SSE
168°
SSE
170°
S
185°
S
186°
S
196°
SSW
197°
SSW
182°
S
173°
S
166°
SSE
157°
SSE
155°
SSE
157°
SSE
158°
SSE
162°
SSE
167°
SSE
177°
S
174°
S
176°
S
175°
S
178°
S
170°
S
181°
S

Daily Forecast

Date High Low Precip. Humidity
Today
Apr 15

Clouds
80 °F
65 °F
0%
68%
Tuesday
Apr 16

Rain
84 °F
68 °F
41%
76%
Wednesday
Apr 17

Clouds
83 °F
72 °F
0%
62%
Thursday
Apr 18

Clouds
79 °F
69 °F
0%
75%
Friday
Apr 19

Rain
80 °F
66 °F
100%
75%
Saturday
Apr 20

Rain
77 °F
62 °F
100%
73%
Sunday
Apr 21

Rain
65 °F
56 °F
100%
78%
Monday
Apr 22

Clear
74 °F
49 °F
0%
58%
Tuesday
Apr 23

Rain
76 °F
59 °F
100%
86%
Wednesday
Apr 24

Rain
79 °F
69 °F
100%
87%
Thursday
Apr 25

Rain
84 °F
71 °F
100%
67%
Friday
Apr 26

Rain
83 °F
70 °F
100%
69%
Saturday
Apr 27

Rain
86 °F
70 °F
100%
63%
Sunday
Apr 28

Rain
86 °F
71 °F
20%
57%
Monday
Apr 29

Clouds
87 °F
72 °F
0%
58%
Tuesday
Apr 30

Rain
81 °F
75 °F
100%
80%

Temperature 8-14 Day Outlook



Precipitation 8-14 Day Outlook




Quick Links
Lake Livingston News
Lake Livingston Photos
Lake Livingston Videos




About Us
Contact Us
Site Map
Search Site
Advertise With Us
   
Livingston.USLakes.info
THE LAKE LIVINGSTON WEBSITE

Copyright 2024, Lakes Online
Privacy    |    Legal